Helicity
27 26 18 29 42 35 43 54 57 147 92 79 67 100 93 95 81 71 40 43 56 45 25 18 17 20 25 31 39 56 62 59 56 25 40 46 83 82 61 52 53 51 50
61 74 60 80 96 109 82 74 202 108 148 121 89 72 54 58 85 73 61 47 50 40 33 19 23 36 48 31 49 59 58 73 59 63 38 43 54 75 75 65 56 63 66
47 73 85 115 167 172 142 144 259 171 184 206 420 383 170 90 79 67 62 56 51 31 22 27 20 48 40 34 51 56 60 95 101 97 76 70 65 71 76 89 69 59 41
60 76 114 138 147 189 195 341 308 277 407 522 582 579 381 -25 42 49 62 60 56 47 32 28 36 51 48 49 57 56 68 88 75 78 87 74 127 70 82 88 74 61 72
60 79 103 132 164 221 252 333 448 512 553 557 546 508 323 102 77 56 68 69 64 66 60 50 56 59 71 74 87 108 120 100 96 94 81 81 96 94 66 78 83 87 74
72 63 64 125 160 193 248 247 386 615 741 747 609 462 239 251 67 66 64 69 68 65 84 78 94 86 107 106 127 123 126 131 105 87 73 82 99 83 77 81 104 89 70
74 73 85 130 136 151 144 186 314 466 560 435 392 308 189 143 57 66 70 48 57 96 111 117 111 91 90 80 113 124 125 122 123 111 112 115 88 81 96 89 77 80 76
66 57 61 79 92 97 133 129 177 270 356 306 244 175 91 101 76 108 112 73 53 103 154 183 153 108 119 96 130 129 113 102 113 132 122 138 131 111 102 92 79 74 90
41 36 71 68 59 67 104 105 117 168 204 182 143 87 67 84 117 138 129 89 90 112 127 144 177 131 154 163 134 118 109 108 128 151 120 100 81 76 94 118 95 102 76
107 131 106 28 16 47 74 121 144 95 136 132 76 78 107 104 133 160 141 100 141 149 131 133 234 197 205 148 119 119 114 93 125 110 97 73 61 56 76 97 94 102 86
130 80 9 -17 18 64 95 187 117 123 129 85 79 75 125 112 82 127 114 104 133 156 125 134 196 178 138 128 128 135 148 169 106 73 56 52 62 73 86 118 112 95 75
36 37 52 48 75 95 156 235 179 97 89 107 77 88 85 45 60 106 102 77 165 182 151 158 261 180 126 124 125 204 179 116 88 84 63 60 81 89 98 99 79 81 83
74 71 81 118 121 156 181 179 154 103 75 92 99 75 99 146 167 162 178 140 112 149 179 242 233 136 109 108 137 147 111 80 95 75 55 75 97 90 75 67 71 72 77
87 132 156 136 126 115 113 111 85 98 87 52 62 139 199 143 101 127 169 159 199 155 183 156 155 126 144 205 157 82 74 97 71 51 52 73 79 74 71 57 59 46 51
148 123 116 127 132 141 164 165 101 161 104 83 91 92 124 97 95 129 111 125 137 206 138 89 85 90 90 88 91 101 89 48 41 42 55 64 77 72 63 54 53 47 36
132 146 182 166 149 101 88 101 173 169 132 111 97 97 104 158 226 237 208 225 208 159 90 102 113 115 98 99 93 88 71 65 49 66 62 64 72 67 54 42 45 37 32
203 201 170 130 110 125 114 97 120 142 162 173 168 162 153 169 224 199 185 165 117 104 96 129 103 104 87 85 84 87 75 93 90 60 63 59 65 53 40 34 26 21 29
180 166 97 109 146 126 89 60 55 88 100 133 182 165 188 177 162 137 96 70 99 80 107 100 83 83 84 84 85 73 73 67 63 58 54 54 50 40 32 27 16 9 8
126 119 115 137 111 95 81 56 62 97 105 150 156 171 179 174 145 132 95 72 80 90 105 80 80 81 79 65 65 60 58 54 65 44 44 45 40 32 25 18 9 0 -1
165 184 123 113 135 91 79 66 86 90 98 107 99 148 174 151 131 105 93 90 83 94 94 80 76 94 72 65 64 55 43 45 44 38 39 31 30 24 23 15 8 -3 -4
143 127 147 139 113 87 86 91 79 72 69 80 80 166 170 96 106 107 91 94 83 109 106 72 75 64 68 60 53 49 51 51 49 36 27 24 20 19 19 15 8 3 -1
136 130 138 101 97 106 112 90 71 63 78 90 107 266 179 99 93 87 106 121 118 126 115 80 60 62 68 68 67 53 55 51 43 34 24 19 17 18 19 19 16 12 6
88 75 92 109 108 156 108 87 87 91 95 119 116 172 137 100 79 109 139 125 131 115 118 76 72 74 73 58 58 56 53 53 42 30 21 19 17 25 17 21 21 22 19
91 93 113 118 109 75 80 81 85 125 89 103 93 95 106 101 98 140 160 146 127 127 110 76 74 77 82 45 54 46 44 45 36 21 16 20 23 23 20 21 27 26 27
95 112 100 93 75 73 106 76 81 70 107 88 85 97 96 112 115 126 113 100 122 109 97 84 78 72 51 50 51 53 77 58 29 18 10 15 26 14 19 23 31 26 35
80 80 84 87 93 100 100 100 94 93 83 83 88 81 88 97 88 118 90 97 87 95 102 89 76 58 65 53 53 95 61 40 23 21 11 9 24 27 22 20 32 30 31
Wind_Speed
44 44 42 31 24 24 25 21 8 9 8 9 15 22 24 20 22 22 24 30 28 29 27 28 31 32 34 39 37 38 38 37 42 55 57 56 53 50 53 54 58 60 57
49 42 36 30 29 31 30 26 16 13 6 7 16 29 41 30 29 23 21 25 26 25 24 28 31 33 35 41 39 37 42 48 56 63 60 60 53 57 54 56 56 58 58
43 36 30 31 31 30 27 21 16 16 11 11 11 17 40 35 33 26 20 19 24 24 24 29 35 38 42 44 46 50 47 52 52 56 60 58 60 60 60 55 53 59 54
31 27 23 26 27 27 26 23 24 23 18 17 14 9 10 23 19 21 25 20 22 24 25 30 33 37 43 47 49 49 54 55 55 50 52 55 57 64 59 59 60 62 66
22 21 22 19 21 20 22 26 26 27 27 25 25 22 19 22 22 24 26 24 20 25 31 33 35 38 43 46 49 51 57 59 55 65 67 70 72 66 67 67 67 70 68
19 19 18 13 14 17 20 24 26 31 32 28 26 24 21 21 25 21 21 26 25 28 37 47 49 51 49 49 48 56 52 61 65 68 75 73 71 67 60 64 69 71 78
12 14 15 14 13 14 14 17 22 26 26 25 24 21 22 23 22 22 20 21 24 34 35 49 60 57 58 50 52 52 52 50 51 62 68 61 67 65 68 70 69 73 80
9 12 10 10 10 10 11 14 16 18 22 22 24 22 22 22 21 24 21 21 17 29 34 43 56 51 53 47 45 45 59 58 59 58 61 65 65 65 67 67 70 72 74
6 9 6 6 7 8 10 12 15 17 20 21 24 28 19 19 18 18 20 21 20 18 22 39 51 53 55 51 46 52 58 62 57 51 53 57 58 60 58 63 65 72 80
2 4 6 7 9 12 18 19 22 23 19 20 23 19 17 16 14 16 19 25 33 39 41 49 51 42 38 46 50 53 63 63 62 64 65 59 55 55 48 44 53 59 70
6 8 10 10 13 16 17 24 24 20 20 21 24 16 17 16 15 19 15 20 31 46 48 46 36 34 37 41 49 55 58 57 62 60 60 63 61 54 54 52 51 63 76
12 12 16 16 17 22 24 25 23 20 22 22 23 21 21 13 16 16 23 24 29 36 42 36 33 36 42 49 50 48 51 55 54 56 60 61 58 59 60 62 54 43 45
19 18 19 21 25 26 26 23 17 14 21 28 26 23 20 15 16 26 27 23 27 29 35 40 39 42 46 46 43 47 48 48 52 57 59 57 55 60 60 55 54 58 44
22 21 22 24 23 22 23 22 20 21 24 23 22 30 28 25 21 29 27 23 23 27 34 39 43 46 45 49 42 38 41 46 52 55 53 53 52 57 59 63 67 69 66
21 20 22 24 22 21 24 28 26 29 30 29 26 26 26 23 23 21 18 17 23 32 35 41 41 42 44 40 39 42 43 44 46 49 53 53 56 59 63 63 65 64 70
21 21 23 22 18 18 24 26 31 30 26 27 29 27 28 24 18 17 23 29 32 34 39 40 43 43 43 41 39 39 42 41 45 52 52 54 58 59 64 67 62 63 70
21 22 23 23 20 20 22 22 23 26 27 31 29 23 24 20 19 21 25 28 31 33 39 40 40 38 38 40 42 43 45 47 52 49 53 55 55 57 63 65 67 66 63
25 27 23 20 19 21 22 21 22 23 25 24 26 25 23 21 21 22 23 26 35 34 35 35 35 36 38 39 41 43 47 51 51 53 52 51 52 56 59 62 66 67 69
27 22 18 16 18 21 21 19 19 21 21 20 21 22 20 21 21 24 27 33 35 35 34 35 35 34 34 36 39 44 49 51 53 52 48 48 50 54 57 60 63 65 65
22 18 16 24 25 21 22 23 23 23 22 19 18 18 17 21 25 25 27 29 29 31 32 34 35 34 33 36 40 44 45 45 44 43 45 46 49 52 57 60 62 64 63
22 18 17 18 19 21 23 23 22 21 21 22 20 22 20 20 23 25 25 25 25 28 30 32 31 30 31 33 37 39 36 37 38 41 44 47 50 53 55 57 60 61 61
18 16 17 19 21 23 23 24 24 25 25 25 25 22 18 19 25 22 23 21 22 25 25 26 27 28 32 35 35 31 32 34 37 41 44 47 49 52 54 56 58 59 60
17 17 20 24 26 29 27 28 26 24 26 27 21 18 17 16 17 19 19 19 19 20 21 22 24 26 30 31 30 28 30 33 36 40 43 46 49 51 54 55 56 57 58
21 22 24 25 26 27 27 24 23 25 21 19 16 16 16 17 15 19 18 16 15 18 19 20 21 25 27 25 24 23 25 31 36 38 42 43 47 50 52 52 53 54 55
22 24 26 27 28 26 25 23 20 20 22 24 22 20 21 21 18 14 9 6 13 16 16 16 17 21 23 21 22 24 29 32 35 39 37 39 45 48 49 50 52 51 51
24 24 26 27 29 29 30 31 30 28 26 25 26 23 22 19 12 7 6 8 9 12 14 14 14 15 17 17 16 22 25 27 29 32 34 31 41 44 47 48 48 47 47
Wind_Direction
184 186 187 187 190 191 193 190 238 323 335 339 334 330 325 334 328 326 330 330 334 334 335 336 336 337 341 336 341 343 343 341 332 327 326 328 329 326 323 323 322 320 319
185 186 189 190 192 196 195 192 197 204 150 337 346 327 310 316 314 313 317 324 326 328 331 330 333 333 334 331 337 343 340 336 326 321 324 325 328 326 324 321 321 321 317
184 184 190 196 202 205 206 207 212 205 198 191 341 314 298 299 299 298 301 310 317 321 326 326 323 325 324 328 329 329 335 333 330 324 323 325 326 326 322 321 321 320 319
188 194 206 207 206 207 208 215 216 212 215 220 243 267 276 236 255 277 292 298 305 312 317 320 323 322 321 322 324 327 327 330 330 326 324 326 327 324 321 320 321 322 319
209 213 210 214 211 215 218 220 222 219 227 238 260 283 292 244 248 271 285 293 296 302 310 314 316 317 319 318 319 326 327 326 329 323 320 322 323 322 320 321 320 320 319
207 207 207 223 233 240 232 227 223 228 233 247 260 279 274 250 226 243 272 289 295 300 308 309 313 315 316 315 317 316 322 322 320 319 316 319 320 320 322 321 320 318 314
224 206 203 212 232 240 235 243 238 240 245 263 279 279 265 246 233 243 251 279 295 304 311 311 310 316 315 318 318 317 321 323 321 320 319 322 321 323 322 320 318 316 312
223 257 222 235 240 239 237 243 251 260 268 271 290 290 275 254 255 270 277 277 259 303 310 314 313 320 316 314 318 322 321 323 322 320 322 321 321 323 322 320 317 315 314
217 269 252 220 257 277 272 272 278 284 271 275 295 303 278 262 267 249 264 272 266 261 299 313 316 312 311 315 321 323 323 323 326 326 327 324 323 323 324 324 321 318 312
246 278 293 284 288 293 299 303 301 296 287 283 298 294 278 268 255 256 256 277 293 304 313 316 318 320 316 317 322 324 320 321 324 325 325 327 328 329 329 326 326 322 318
314 305 304 299 298 311 308 312 312 307 308 303 307 286 287 263 278 269 241 280 300 313 317 320 326 325 323 323 322 320 320 325 324 325 327 328 331 334 334 335 332 324 318
323 321 313 313 316 314 314 318 314 308 306 309 310 302 294 262 283 287 288 290 311 318 320 324 329 326 324 320 321 323 324 324 325 326 327 330 334 334 333 331 334 332 330
316 318 317 318 316 323 321 321 323 316 312 313 311 307 309 312 314 312 311 307 316 321 323 325 329 327 325 323 323 324 326 327 326 326 328 332 336 334 334 334 334 333 335
317 319 321 318 321 327 326 325 323 322 322 320 319 316 318 315 315 316 321 325 330 328 328 329 330 328 328 328 328 333 333 331 329 329 333 337 340 338 337 334 332 332 334
320 320 317 321 323 328 333 329 324 331 332 328 328 325 323 320 322 326 330 335 332 332 330 328 330 329 328 332 334 333 334 335 336 336 336 338 338 338 335 337 335 335 332
327 329 327 332 336 335 331 324 333 339 341 338 335 334 335 337 345 343 336 337 335 334 332 330 329 330 331 333 335 336 334 336 337 336 336 336 337 338 335 334 338 336 333
327 329 328 329 333 333 329 328 331 338 346 342 342 346 346 351 352 344 341 341 340 338 333 332 333 335 334 333 331 332 332 332 333 336 335 335 338 339 335 334 331 334 340
323 322 323 327 333 335 335 336 334 334 334 340 343 343 351 354 352 352 350 348 341 342 341 341 341 338 336 334 332 332 330 330 332 332 335 338 341 337 338 336 332 330 331
322 323 328 338 340 336 339 341 340 337 339 343 343 347 356 356 357 351 345 340 341 343 345 345 345 343 342 340 337 334 330 329 328 330 337 342 342 338 336 337 334 333 336
328 331 331 327 331 335 338 337 336 334 334 334 335 341 344 344 342 342 342 345 349 350 351 349 347 345 344 342 338 336 334 334 335 339 340 341 342 340 336 333 333 330 331
328 330 328 334 339 343 342 343 344 344 338 334 337 337 340 342 342 342 345 349 351 352 352 351 351 351 350 347 344 342 346 347 345 342 339 338 338 337 339 336 332 332 334
332 335 333 333 337 336 336 337 337 334 335 334 334 342 341 337 337 343 345 353 356 356 358 359 356 352 348 344 344 350 351 349 346 342 341 340 339 337 334 333 332 332 332
333 330 330 326 326 328 325 325 329 331 331 334 337 342 340 336 340 343 348 352 357 2 8 8 2 356 352 349 350 353 350 348 346 346 345 344 341 339 335 333 331 333 331
327 327 328 329 328 328 328 330 333 335 340 342 340 337 339 343 345 345 350 356 3 4 8 11 9 359 357 0 2 2 359 350 346 350 348 349 346 340 335 334 331 331 331
334 332 329 328 330 330 331 329 332 333 333 331 331 335 339 343 344 350 4 25 7 4 11 21 19 9 3 3 2 358 350 348 346 347 355 354 347 342 337 333 331 329 331
340 340 339 335 332 330 327 323 323 325 327 330 332 336 342 347 359 25 43 28 23 12 13 25 31 30 19 14 17 5 2 3 0 358 0 9 354 350 342 338 334 332 333